Погода в Карае

Россия / Республика Марий Эл     56°02′41″N   48°38′53″E
темп.,
°C
ветер,
м/с
пор.,
м/с
влажн.,
%
обл.,
%
осадки,
мм/ч
давл.,
гПа
погр.,
м
25 января, пн
пн2500:00+1ююз51098100 0.0 1023362
03:00+1ююз51197100 0.1 1023412
06:00+1ююз51299100 0.6 1023463
09:000ююз51096100 1.3 1025484
12:00−1ююз61195100 0.1 1025538
15:00−1ююз6992100 0.2 1025592
18:00−2ю4993100 0.0 1025538
21:00−2ю4993100 0.0 1026539
26 января, вт
вт2600:00−4ю51093100 0.1 1025440
03:00−5ююв4996100 0.1 1025296
06:00−4ююв41196100 0.1 1024385
09:00−2ю51195100 0.4 1024453
12:00−2ю51096100 0.1 1023465
15:00−3ю5995100 0.1 1023486
18:00−3ю51193100 0.1 1023532
21:00−3ю61194100 0.1 1023693
27 января, ср
ср2700:00−2ю51194100 0.1 1023473
03:00−2ю61194100 0.1 1022473
06:00−2ю71294100 0.0 1021475
09:00−2ю71393100 0.1 1021539
12:00−3ю71294100 0.1 1020664
15:00−1ююз61293100 0.1 1019710
18:00−1ю81494100 0.4 1019505
21:00−3ю71393100 1.6 1018439
28 января, чт
чт2800:00−4ю61293100 0.2 1018504
03:00−3ю61292100 0.3 1017491
06:00−3ю61191100 0.1 1017387
09:00−3ю51192100 0.2 1018387
12:00−3ю5992100 0.0 1018365
15:00−4ююв4892100 0.0 1017335
18:00−7ююв4994100 0.0 1017262
21:00−7ююв51095100 0.0 1017294
29 января, пт
пт2900:00−7ююв4994100 0.0 1016276
03:00−8юв4894100 0.0 1015256
06:00−9юв4895100 0.0 1014239
09:00−9юв4895100 0.0 1012256
12:00−7юв4794100 0.0 1011308
15:00−6юв4795100 0.1 1009403
18:00−8юв3697100 0.1 1008217
21:00−7юв2397100 0.2 1007160